www.pogodaiklimat.ru

Погода и климат >> Архив погоды >> Россия >> Камчатский край >> Долиновка


ПОГОДА в Долиновке

  • Прогноз погоды в Долиновке
  • Монитор погоды в Долиновке

АРХИВ ПОГОДЫ в Долиновке

Время (UTC), дата Ветер
(напр.,м/с)
 
Видим.   Явления Облачность Т
(С)
Тd
(С)
f
(%)
Тe
(С)
Тes
(С)
Комфортность P
(гПа)
Po
(гПа)
Тmin
(С)
Tmax
(С)
R
(мм)
R24
(мм)
S
(см)
18 17.08 СВ 1 50 км 9/9 1000 м
[Sc]
+10.6 +8.2 85 +10 +10 1015.0 1002.7
21 17.08 С 2 50 км 9/9 1000 м
[Sc]
+13.0 +8.2 73 +12 +13 1015.1 1002.9 +9.5
00 18.08 СВ 2 50 км 9/9 1000 м
[Sc]
+15.6 +8.5 63 +16 +17 1015.3 1003.2
03 18.08 С 2 50 км 10/10 1000 м
[Sc]
+16.1 +9.1 63 +16 +16 1017.4 1005.3
06 18.08 СВ 1 50 км 10/10 1000 м
[Sc]
+15.9 +10.6 71 +17 +17 1017.4 1005.3
09 18.08 С 1 50 км 9/9 1000 м
[Sc]
+14.0 +9.9 76 +14 +14 1017.8 1005.7 +16.8
12 18.08 штиль 0 20 км 10/10 1000 м
[Sc]
+12.8 +10.0 83 +12 +12 1020.3 1008.0
15 18.08 штиль 0 н/о н/о +11.0 +9.4 90 +10 +10 1021.7 1009.3
18 18.08 штиль 0 50 км 10/10 1000 м
[Sc]
+11.4 +10.1 92 +11 +11 1023.1 1010.7
21 18.08 СВ 1 50 км 10/10 1000 м
[Sc]
+12.6 +9.9 84 +13 +13 1022.4 1010.1 +10.5
00 19.08 СВ 1 50 км 10/10 1000 м
[Sc]
+14.8 +10.0 73 +15 +15 1022.3 1010.1
03 19.08 СВ 2 50 км 8/8 1000 м
[Sc]
+18.3 +10.4 60 +19 +22 1022.8 1010.7
06 19.08 СВ 1 50 км 9/9 1000 м
[Sc]
+18.3 +11.6 65 +20 +20 1022.8 1010.7
09 19.08 СВ 1 50 км 8/5 1000 м
[Sc Ci fib]
+14.3 +11.6 84 +15 +15 1023.0 1010.7 +18.9
12 19.08 штиль 0 20 км 8/8 1000 м
[Sc]
+10.0 +9.5 97 +9 +9 1024.5 1012.0
15 19.08 штиль 0 20 км 8/5 1000 м
[Sc Ci fib]
+9.0 +8.7 98 +8 +8 1024.5 1012.0
18 19.08 С 1 50 км 10/10 1000 м
[Sc]
+11.1 +10.8 98 +11 +11 1024.4 1012.0
21 19.08 ЮВ 1 50 км 9/9 1000 м
[Sc]
+12.5 +9.5 82 +13 +13 1023.3 1011.0 +7.9
00 20.08 СВ 1 50 км 9/8 1000 м
[Sc Ci fib]
+15.5 +9.2 66 +16 +18 1021.9 1009.8
03 20.08 Ю 1 50 км 8/4 600 м
[Cu med, cong Ci sp]
+19.8 +11.0 57 +22 +26 комфорт 1020.0 1008.0
06 20.08 ЮВ 1 50 км 9/6 1000 м
[Sc Ac trans Ci sp]
+21.0 +10.8 52 +24 +24 комфорт 1018.6 1006.7
09 20.08 С 1 50 км 9/6 1000 м
[Sc Ci sp]
+13.5 +11.4 87 +14 +14 1018.3 1006.1 +21.1
12 20.08 штиль 0 20 км 9/5 1000 м
[Sc Ci sp]
+9.7 +9.2 97 +9 +9 1019.1 1006.7
15 20.08 штиль 0 20 км 9/5 1000 м
[Sc Ci sp]
+7.3 +7.0 98 +6 +6 1019.2 1006.7
18 20.08 штиль 0 50 км 9/8 1000 м
[Sc Ci sp]
+6.4 +6.3 99 +5 +5 1019.3 1006.7
21 20.08 З 1 50 км 9/5 1000 м
[Sc Ci sp]
+11.4 +11.0 97 +11 +13 1017.9 1005.6 +5.7
00 21.08 ЮЗ 1 50 км 9/6 1000 м
[Sc Ci fib]
+17.5 +10.9 65 +19 +23 1016.4 1004.4
03 21.08 ЮЗ 1 50 км 8/3 1000 м
[Sc Ci fib]
+21.1 +11.4 54 +23 +26 комфорт 1015.9 1004.0
06 21.08 СЗ 1 50 км 4/0
[Ci fib]
+22.3 +6.5 36 +23 +25 комфорт 1014.5 1002.7
09 21.08 СВ 1 50 км 3/3 1000 м
[Sc]
+15.1 +10.0 72 +16 +16 1014.5 1002.4 +23.5
12 21.08 штиль 0 20 км 3/3 1000 м
[Sc]
+7.9 +7.5 97 +7 +7 1017.8 1005.3
15 21.08 штиль 0 20 км 5/3 1000 м
[Sc Ci fib]
+6.2 +5.9 98 +5 +5 1017.9 1005.3
18 21.08 З 1 50 км 10/10 1000 м
[Sc]
+8.7 +8.6 99 +8 +8 1019.2 1006.7
21 21.08 штиль 0 50 км 10/10 1000 м
[Sc]
+10.6 +9.5 93 +10 +10 1018.2 1005.8 +5.9
00 22.08 ЮВ 1 50 км 9/9 1000 м
[Sc]
+13.8 +9.9 77 +14 +15 1017.9 1005.7
03 22.08 Ю 1 50 км 3/3 1000 м
[Sc]
+18.5 +10.3 59 +20 +29 1017.3 1005.3
06 22.08 штиль 0 50 км 4/0
[Ci fib]
+20.5 +10.6 53 +22 +24 комфорт 1015.9 1004.0
09 22.08 штиль 0 50 км 4/3 1000 м
[Sc Ci fib]
+13.0 +12.3 96 +12 +12 1015.9 1003.7 +21.1
12 22.08 штиль 0 20 км 8/4 1000 м
[Sc Ci fib]
+10.2 +9.9 98 +9 +9 1017.7 1005.3
15 22.08 штиль 0 20 км 8/4 1000 м
[Sc Ci fib]
+7.4 +7.1 98 +6 +6 1019.2 1006.7
18 22.08 штиль 0 50 км 10/6 1000 м
[Sc Ac As]
+6.4 +6.3 99 +5 +5 1019.3 1006.7
21 22.08 ЮЗ 1 50 км 9/9 1000 м
[Sc]
+11.8 +11.5 98 +12 +12 1019.0 1006.7 +6.1
00 23.08 ЮВ 1 50 км 9/8 1000 м
[Sc Ac trans]
+19.0 +12.5 66 +21 +23 комфорт 1018.3 1006.3
03 23.08 ЮЗ 1 50 км 9/8 1000 м
[Sc Ac trans]
+22.1 +12.1 53 +24 +26 комфорт 1018.6 1006.7
06 23.08 штиль 0 50 км 9/8 1000 м
[Sc Ac trans]
+21.7 +16.0 70 +25 +26 комфорт 1018.6 1006.7
09 23.08 штиль 0 50 км 9/5 1000 м
[Sc Ci fib]
+14.7 +14.1 96 +14 +14 1018.0 1005.8 +23.7
12 23.08 штиль 0 20 км 4/4 1000 м
[Sc]
+9.9 +9.6 98 +9 +9 1020.4 1008.0
15 23.08 штиль 0 20 км 4/4 1000 м
[Sc]
+6.7 +6.4 98 +6 +6 1021.9 1009.3
18 23.08 штиль 0 50 км 9 баллов +6.2 +6.1 99 +5 +5 1021.9 1009.3
21 23.08 штиль 0 50 км 9/9 1000 м
[Sc]
+10.0 +9.7 98 +9 +10 1021.7 1009.3 +5.3
00 24.08 штиль 0 50 км 9/3 1000 м
[Sc Ci fib]
+19.4 +12.9 66 +21 +28 комфорт 1020.5 1008.5
03 24.08 В 1 50 км 9 баллов +23.4 +11.1 46 +26 +27 жарко 1019.9 1008.0
06 24.08 штиль 0 50 км 9 баллов +23.0 +14.8 60 +27 +27 душно 1018.5 1006.7
09 24.08 штиль 0 50 км 9/9 1000 м
[Sc]
+17.6 +15.7 89 +18 +18 1017.7 1005.7 +25.0
12 24.08 штиль 0 20 км 4 балла +12.6 +12.0 96 +12 +12 1019.0 1006.7

 

Местоположение метеостанции Долиновка (Камчатский край, Россия): широта 55.12 долгота 159.00 высота над уровнем моря 102 м.

В архиве по умолчанию представлена погода в Долиновке за последнюю неделю. Архивные данные за месяц целиком и за предыдущие месяцы, начиная с января 2011 года, Вы можете получить, выбрав интересующий диапазон дат из раскрывающегося списка и нажав кнопку "Ввод!".


*Определитесь, кто Вы:
робот инопланетянин человек

Внимание! Время в таблицах - всемирное. Для получения местного времени необходимо прибавить поправку, которая равна 12 ч.

Смотрите также архив погоды в соседних городах и на ближайших метеорологических станциях:

Погода в Мильково (Камчатский край, Россия) (58 км)
Погода в Эссо (Камчатский край, Россия) (92 км)
Погода в Козыревске (Камчатский край, Россия) (115 км)
Погода в Пущино (Камчатский край, Россия) (123 км)
Погода в Семячике (Камчатский край, Россия) (125 км)
Погода в Ключах (Камчатский край, Россия) (175 км)
Погода в Соболево (Камчатский край, Россия) (219 км)
Погода в Иче (Камчатский край, Россия) (227 км)
Погода в Петропавловск-Камч. 2 (Камчатский край, Россия) (229 км)
Погода в Сосновке (Камчатский край, Россия) (231 км)

Пояснения к столбцам:

Ветер - указаны скорость ветра в м/с - средняя за 10 мин, порывы в срок и между сроками (в фигурных скобках) и направление, откуда дует ветер: С - северный, СВ - северо-восточный, В - восточный, ЮВ - юго-восточный, Ю - южный, ЮЗ - юго-западный, З - западный, СЗ - северо-западный.
Видимость - горизонтальная дальность видимости в метрах или километрах. При видимости от 1 до 10 км при отсутствии осадков обычно наблюдается дымка, при ухудшении видимости до 1 км и менее - туман. В сухую погоду видимость может ухудшаться дымом, пылью или мглою.
Явления - указаны атмосферные явления, наблюдавшиеся в срок или в последний час перед сроком; фигурными скобками обозначены явления, наблюдавшиеся между сроками (за 1-3 часа до срока); квадратными скобками обозначены град или гололедные отложения с указанием их диаметра в мм.
Облачность - указаны через наклонную черту общая и нижняя облачность в баллах и высота нижней границы облаков в метрах; квадратными скобками обозначены формы облаков: Ci - перистые, Cs - перисто-слоистые, Cc - перисто-кучевые, Ac - высококучевые, As - высокослоистые, Sc - слоисто-кучевые, Ns - слоисто-дождевые, Cu - кучевые, Cb - кучево-дождевые. Подробнее классификацию облаков см. в Атласе облаков (PDF).
T - Температура воздуха - температура, измеренная на высоте 2 м над землей.
Td - Температура точки росы - температура, при понижении до которой содержащийся в воздухе водяной пар достигнет насыщения.
f - Относительная влажность воздуха - влажноcть воздуха, измеренная на высоте 2 м над землей.
Te - Эффективная температура - температура, которую ощущает одетый по сезону человек в тени. Характеристика душности погоды. При расчете учитывается влияние влажности воздуха и скорости ветра на теплоощущения человека.
Tes - Эффективная температура на солнце - температура, которую ощущает человек, с поправкой на солнечный нагрев. Характеристика знойности погоды. Зависит от высоты солнца над горизонтом, облачности и скорости ветра. Ночью, в пасмурную погоду, а также при ветре 12 м/с и более поправка равна нулю.
P - Атмосферное давление - приведенное к уровню моря атмосферное давление.
Po - Атмосферное давление - измеренное на уровне метеостанции атмосферное давление.
Tmin - Минимальная температура - минимум температуры воздуха на высоте 2 м над землей.
Tmax - Максимальная температура - максимум температуры воздуха на высоте 2 м над землей.
R - Количество осадков - Количество выпавших осадков за период времени, мм. При наведении курсора мыши на число - период времени, за который выпало указанное количество осадков.
R24 - Количество осадков - Количество выпавших осадков за 24 часа, мм.
S - Снежный покров - Высота снежного покрова, см. При наведении курсора мыши на число - состояние снежного покрова и степень покрытия местности в баллах.